Tupelo, MS

10:24 AM CDT on October 19, 2017 (GMT -0500)
Tupelo Regional

Weather History for KTUP - April, 2014

Change the Weather History Date:

Thursday, April 3, 2014

  Actual Average Record
Temperature  
Mean Temperature 74 °F 59 °F  
Max Temperature 85 °F 71 °F 87 °F (1945)
Min Temperature 63 °F 47 °F 28 °F (1970)
Degree Days  
Heating Degree Days 0 7  
Month to date heating degree days 0 23  
Since 1 July heating degree days 3290 2809  
Cooling Degree Days 9 1  
Month to date cooling degree days 15 3  
Year to date cooling degree days 15 19  
Growing Degree Days 24 (Base 50)    
Moisture  
Dew Point 62 °F    
Average Humidity 67    
Maximum Humidity 87    
Minimum Humidity 47    
Precipitation  
Precipitation 0.00 in 0.14 in 4.16 in (2001)
Month to date precipitation T 0.44  
Year to date precipitation 9.17 14.70  
Snow  
Snow 0.00 in 0.00 in T in (1987)
Month to date snowfall 0.0 0.0  
Since 1 July snowfall 0.5 2.1  
Snow Depth 0.00 in    
Sea Level Pressure  
Sea Level Pressure 29.89 in    
Wind  
Wind Speed 12 mph (SSW)    
Max Wind Speed 23 mph    
Max Gust Speed 28 mph    
Visibility 10 miles    
Events      
T = Trace of Precipitation, MM = Missing Value Source: NWS Daily Summary

Daily Weather History Graph

Daily Weather History Graph

Search for Another Location

Airport or City:

Trip Planner

Search our weather history database for the weather conditions in past years. The results will help you decide how hot, cold, wet, or windy it might be!

Date:

Astronomy

Apr. 03, 2014 Rise Set
Actual Time 6:39 AM CDT 7:17 PM CDT
Civil Twilight 6:14 AM CDT 7:42 PM CDT
Nautical Twilight 5:44 AM CDT 8:12 PM CDT
Astronomical Twilight 5:14 AM CDT 8:43 PM CDT
Moon 9:17 AM CDT (4/3) 11:27 PM CDT (4/3)
Length of Visible Light 13h 28m
Length of Day
12h 37m
Waxing Crescent, 17% of the Moon is Illuminated
Apr 3
Waxing Crescent
Apr 7
First Quarter
Apr 15
Full
Apr 22
Last Quarter
Apr 29
New

Hourly Weather History & Observations

Time (CDT) Temp. Heat Index Dew Point Humidity Pressure Visibility Wind Dir Wind Speed Gust Speed Precip Events Conditions
12:53 AM 66.0 °F - 62.1 °F 87% 29.97 in 10.0 mi SSW 9.2 mph - N/A   Clear
1:53 AM 66.9 °F - 61.0 °F 81% 29.96 in 10.0 mi SSW 9.2 mph - N/A   Clear
2:53 AM 64.9 °F - 60.1 °F 84% 29.94 in 10.0 mi SSW 8.1 mph - N/A   Clear
3:53 AM 64.9 °F - 61.0 °F 87% 29.92 in 10.0 mi SSW 11.5 mph - N/A   Partly Cloudy
4:33 AM 64.0 °F - 61.0 °F 90% 29.93 in 10.0 mi SSW 8.1 mph - N/A   Mostly Cloudy
4:53 AM 64.9 °F - 61.0 °F 87% 29.92 in 10.0 mi SW 8.1 mph - N/A   Mostly Cloudy
5:53 AM 64.0 °F - 61.0 °F 90% 29.93 in 10.0 mi South 5.8 mph - N/A   Overcast
6:12 AM 63.0 °F - 60.1 °F 90% 29.94 in 10.0 mi South 5.8 mph - N/A   Scattered Clouds
6:53 AM 64.9 °F - 61.0 °F 87% 29.93 in 10.0 mi South 6.9 mph - N/A   Mostly Cloudy
7:53 AM 66.0 °F - 62.1 °F 87% 29.94 in 10.0 mi SSW 8.1 mph - N/A   Overcast
8:53 AM 66.9 °F - 63.0 °F 87% 29.94 in 10.0 mi SSW 8.1 mph - N/A   Overcast
9:53 AM 69.1 °F - 63.0 °F 81% 29.94 in 10.0 mi SSW 9.2 mph - N/A   Overcast
10:27 AM 70.0 °F - 63.0 °F 78% 29.94 in 10.0 mi SSW 12.7 mph - N/A   Overcast
10:53 AM 70.0 °F - 64.0 °F 81% 29.93 in 10.0 mi SSW 12.7 mph - N/A   Overcast
11:51 AM 73.4 °F - 64.4 °F 73% 29.91 in 10.0 mi South 15.0 mph 18.4 mph N/A   Overcast
11:53 AM 73.0 °F - 64.0 °F 73% 29.90 in 10.0 mi South 13.8 mph 18.4 mph N/A   Overcast
12:30 PM 75.9 °F - 64.0 °F 67% 29.90 in 10.0 mi SSW 12.7 mph - N/A   Overcast
12:37 PM 75.9 °F - 64.0 °F 67% 29.90 in 10.0 mi SSW 12.7 mph - N/A   Mostly Cloudy
12:53 PM 79.0 °F - 64.9 °F 62% 29.88 in 10.0 mi SW 13.8 mph 21.9 mph N/A   Mostly Cloudy
1:53 PM 81.0 °F 81.9 °F 62.1 °F 52% 29.88 in 10.0 mi SW 15.0 mph - N/A   Mostly Cloudy
2:53 PM 82.9 °F 83.7 °F 62.1 °F 49% 29.84 in 10.0 mi SSW 18.4 mph 26.5 mph N/A   Partly Cloudy
3:53 PM 82.9 °F 83.7 °F 62.1 °F 49% 29.84 in 10.0 mi SW 18.4 mph 23.0 mph N/A   Mostly Cloudy
4:53 PM 82.9 °F 83.2 °F 60.1 °F 46% 29.82 in 10.0 mi SW 16.1 mph 24.2 mph N/A   Overcast
5:53 PM 82.0 °F 82.7 °F 61.0 °F 49% 29.82 in 10.0 mi SSW 16.1 mph - N/A   Mostly Cloudy
6:53 PM 80.1 °F 80.7 °F 59.0 °F 48% 29.81 in 10.0 mi SSW 15.0 mph - N/A   Unknown
7:53 PM 75.9 °F - 59.0 °F 56% 29.82 in 10.0 mi SSW 9.2 mph - N/A   Partly Cloudy
8:53 PM 72.0 °F - 59.0 °F 64% 29.83 in 10.0 mi SSW 8.1 mph - N/A   Clear
9:53 PM 73.0 °F - 60.1 °F 64% 29.83 in 10.0 mi SSW 11.5 mph - N/A   Clear
11:53 PM 72.0 °F - 59.0 °F 64% 29.80 in 10.0 mi SSW 18.4 mph - N/A   Partly Cloudy